This is the latest recevied weather packets stored in our database for station/object GUNLAK-WX. If no packets are shown the sender has not sent any weather packets the latest 10 day(s).
| Time | Temp. | Humidity | Pressure | Rain* | Wind** | Luminosity | Snow |
|---|---|---|---|---|---|---|---|
| 1777393888 | 10.56° C | 84% | 983.5 hPa | 0 mm | - | - | - |
| 1777392971 | 10.56° C | 84% | 983.5 hPa | 0 mm | - | - | - |
| 1777392099 | 10.56° C | 84% | 983.5 hPa | 0 mm | - | - | - |
| 1777391171 | 10.56° C | 83% | 982.7 hPa | 0 mm | - | - | - |
| 1777390290 | 11.11° C | 87% | 983.2 hPa | 0 mm | - | - | - |
| 1777389370 | 10.56° C | 87% | 983.2 hPa | 0 mm | - | - | - |
| 1777388506 | 11.11° C | 87% | 983.2 hPa | 0 mm | - | - | - |
| 1777387571 | 11.67° C | 86% | 981.3 hPa | 0 mm | - | - | - |
| 1777386691 | 11.67° C | 86% | 982.1 hPa | 0 mm | - | - | - |
| 1777385770 | 11.11° C | 86% | 982.1 hPa | 0 mm | - | - | - |
| 1777384908 | 11.11° C | 86% | 982.1 hPa | 0 mm | - | - | - |
| 1777383970 | 11.67° C | 90% | 980.7 hPa | 0 mm | - | - | - |
| 1777383092 | 11.67° C | 90% | 980.7 hPa | 0 mm | - | - | - |
| 1777382171 | 10° C | 90% | 980.6 hPa | 0 mm | - | - | - |
| 1777381301 | 10° C | 90% | 980.6 hPa | 0 mm | - | - | - |
| 1777380370 | 10° C | 86% | 981.1 hPa | 0 mm | - | - | - |
| 1777379491 | 10° C | 86% | 980.2 hPa | 0 mm | - | - | - |
| 1777378570 | 10.56° C | 86% | 980.2 hPa | 0 mm | - | - | - |
| 1777377714 | 10.56° C | 86% | 980.2 hPa | 0 mm | - | - | - |
| 1777376770 | 11.11° C | 90% | 979.2 hPa | 0 mm | - | - | - |
| 1777375894 | 11.67° C | 91% | 979.5 hPa | 0 mm | - | - | - |
| 1777374976 | 12.22° C | 91% | 979.6 hPa | 0.51 mm | - | - | - |
| 1777374103 | 12.22° C | 91% | 979.6 hPa | 0.51 mm | - | - | - |
| 1777373175 | 12.78° C | 90% | 979.5 hPa | 0 mm | - | - | - |
| 1777372291 | 13.33° C | 94% | 978.8 hPa | 0 mm | - | - | - |
* Rain latest hour (hover to see other rain measurements)
** Current wind speed in m/s (hover to see current wind gust speed)